COSMOS 682

Satellite information

Favourite Embed

Satellite Type and Status

PAYLOADIN ORBIT

Key statistics

Satellite COSMOS 682 at a glance.

Uptime

18553

Days in orbit

Revolutions

≈ 12.5

Per day

Orbit

LEO

Low Earth Orbit

Inclination

74.0

Latest

Satellite identification and parameters

Extended collection of information and parameters for COSMOS 682.

Object identification

Identified? True

Debris? False

Object name: COSMOS 682

International designator: 1974-072F

Object number (NORAD): 7440

Object ID (CCSDS): 7440

Country: COMMONWEALTH OF INDEPENDENT STATES (CIS)

Current information (Y/N): Y

RCS size: MEDIUM

Orbital parameters

Period: 115.081 minutes

Inclination: 74.0363 deg

SMA: 7837.229 km

Apoapsis: 1466.3 km

Periapsis: 1451.888 km

RAAN: 12.6602 deg

Eccentricy: 0.0009195

Argument of periapsis: 213.2997 deg

Mean anomaly: 204.7454 deg

Mean motion: 12.51292832 rev/day

Mean motion (dot): -0.00000001 rev/day2

B* drag term: 0.000095489 1/REarth

Two-line elements (TLE)

Creation date: July 5, 2025, 5:45 p.m.

Reference frame: TEME

Reference center: EARTH

Epoch: July 5, 2025, 1:47 p.m. UTC

TLE line 0: 0 COSMOS 682

TLE line 1: 1 07440U 74072F 25186.57440793 -.00000001 00000-0 95489-4 0 9997

TLE line 2: 2 07440 74.0363 12.6602 0009195 213.2997 204.7454 12.51292832320123

Live tracking on map

Real-time ground track for satellite COSMOS 682.

In-orbit conjunctions

There are no conjunctions computed for COSMOS 682, at the moment. Check back to stay up to date, as we update our databases every day.

Go to all conjunctions

Associated space launch

Military communications satellites

COSMOS 682 was lifted into orbit during the mission ‘Kosmos-3M | Strela-1M 73-80’, on board a Kosmos-3M space rocket.

The launch took place on Sept. 19, 1974, 2:57 p.m. from 132/2.

For more information about the launch, click the button.

Launch to space Kosmos-3M | Strela-1M 73-80
Kosmos-3M | Strela-1M 73-80

Agency: N/A

Status: Launch Successful

Launch date: Sept. 19, 1974, 2:57 p.m. UTC

Rocket: Kosmos-3M

Launch pad: 132/2

Location: Plesetsk Cosmodrome, Russian Federation

...

Latest news about this satellite

There are no fresh news available about this satellite. Check back as we update our databases every day.


Newsletter sign-up

Weekly statistics, charts and insights to help you stay on top of the space industry.